Zurück zum Katalog

CZ-6A DEB

AktivSSO
NORAD 56626·DEBRIS·🇨🇳 China

Gestartet Nov 11, 2022 von Taiyuan Satellite Launch Center

Loading…

Nächste Überflüge (nächste 24 Stunden)

TLE

AktuellSource: Space-Track

Epoche: Sep 13, 2026, 08:48 UTC

1 56626U 22151AFA 26256.36702709  .00000422  00000-0  20422-3 0  9992
2 56626  98.8061 289.4880 0008634 167.3050 192.8347 14.23770700176505

Verfolge CZ-6A DEB in Echtzeit mit AllMySat

Download on the App Store